Location: Le Domaine
(47.0333°N, 76.5361°W)
Time: 21:59:20
(UTC-05:00)

Transit 2A Rocket - Pass Details

Date: 22 November 2019
Orbit: 594 x 909 km, 66.7° (Epoch: 14 December)

Event Time Altitude Azimuth Distance (km) Brightness Sun altitude
Exits shadow 05:51:29 20° 316° (NW) 1,431 5.9 -14.7°
Maximum altitude 05:54:27 63° 240° (WSW) 694 4.6 -14.2°
Drops below altitude 10° 05:58:58 10° 160° (SSE) 2,047 7.7 -13.5°
Sets 06:01:21 0° 157° (SSE) 2,999 8.7 -13.1°
